N1IJV-10 Weather Reports


time (UTC)temp
F
wind
direction
speed
knots
gust
knots
rain 1hr
in
rain 24hr
in
rain mn
in
humidity
%
barometer
mb
20260831033208 73 308 0.0 1.7 0.00 0.21 0.21 99 1012.3
20260831032703 73 309 0.0 0.9 0.00 0.21 0.21 99 1012.3
20260831032154 73 305 0.0 0.0 0.00 0.21 0.21 99 1012.3
20260831031653 73 312 0.0 0.0 0.00 0.21 0.21 99 1012.5
20260831031147 73 313 0.0 0.0 0.00 0.21 0.21 99 1012.7
20260831030646 73 310 0.9 0.9 0.00 0.21 0.21 99 1012.6
20260831030145 73 309 0.0 0.0 0.00 0.21 0.21 99 1012.8
20260831025643 73 313 0.0 0.9 0.00 0.21 0.21 99 1012.5
20260831025138 74 313 0.0 0.0 0.07 0.21 0.21 99 1012.6
20260831024635 74 314 0.0 0.9 0.07 0.21 0.21 98 1012.8
20260831024133 74 313 0.0 0.9 0.05 0.20 0.20 97 1012.8
20260831023632 74 303 0.9 1.7 0.05 0.20 0.20 97 1012.5
20260831023126 74 307 0.0 0.9 0.00 0.19 0.19 98 1012.5
20260831022621 74 304 0.0 0.9 0.00 0.19 0.19 98 1012.7
20260831022116 74 311 0.0 0.9 0.00 0.19 0.19 98 1012.6
20260831021615 73 300 0.0 0.9 0.00 0.19 0.19 98 1012.6
20260831021111 73 310 0.0 0.0 0.00 0.19 0.19 98 1012.8
20260831020607 73 311 0.0 0.0 0.00 0.19 0.19 98 1012.7
20260831015557 74 312 0.0 0.0 0.00 0.19 0.19 97 1013.0
20260831015051 74 306 0.9 0.9 0.00 0.19 0.19 97 1012.7
20260831014546 74 310 0.0 0.9 0.00 0.19 0.19 97 1012.6
20260831014042 73 309 0.0 0.9 0.00 0.19 0.19 98 1012.4
20260831013537 73 307 0.0 0.0 0.00 0.19 0.19 98 1012.3
20260831013032 73 305 0.0 0.0 0.00 0.19 0.19 98 1012.6
20260831012527 73 311 0.0 0.0 0.00 0.19 0.19 98 1012.4
20260831012026 73 311 0.0 0.0 0.00 0.19 0.19 98 1012.4
20260831011521 73 310 0.0 0.0 0.00 0.19 0.19 98 1012.3
20260831011016 73 308 0.0 0.0 0.00 0.19 0.19 98 1012.2
20260831010511 73 310 0.0 0.0 0.00 0.19 0.19 98 1012.2
20260831010008 73 313 0.0 0.0 0.00 0.19 0.19 97 1012.3
20260831005502 74 310 0.0 0.0 0.00 0.19 0.19 97 1012.4
20260831005001 74 309 0.0 0.0 0.00 0.19 0.19 97 1011.9
20260831004458 74 310 0.0 0.0 0.00 0.19 0.19 96 1011.9
20260831003954 74 315 0.0 0.0 0.00 0.19 0.19 96 1011.8
20260831003450 74 307 0.0 0.9 0.00 0.19 0.19 96 1011.8
20260831002949 74 316 0.0 0.0 0.00 0.19 0.19 96 1011.8
20260831002448 74 318 0.0 0.0 0.00 0.19 0.19 96 1012.1
20260831001944 74 314 0.0 0.0 0.00 0.19 0.19 96 1011.7
20260831001439 74 315 0.0 0.0 0.00 0.19 0.19 96 1012.1
20260831000936 74 313 0.0 0.0 0.00 0.19 0.19 96 1012.1
20260831000432 74 317 0.0 0.0 0.00 0.19 0.19 96 1012.2
20260830235929 74 313 0.0 0.0 0.00 0.19 0.19 95 1012.4
20260830235425 74 311 0.0 0.0 0.00 0.19 0.19 95 1012.7
20260830234920 74 315 0.0 0.0 0.00 0.19 0.19 95 1012.4
20260830234415 74 316 0.0 0.9 0.00 0.19 0.19 95 1012.3
20260830233911 74 314 0.0 0.9 0.07 0.19 0.19 94 1012.4
20260830233406 74 317 0.0 1.7 0.00 0.18 0.18 94 1012.4
20260830232902 74 313 0.0 0.9 0.00 0.18 0.18 94 1012.8
20260830232357 74 310 0.0 0.9 0.00 0.18 0.18 94 1012.6
20260830231854 74 305 0.9 1.7 0.00 0.18 0.18 94 1012.5
20260830231349 74 303 0.9 1.7 0.00 0.18 0.18 94 1012.5
20260830230848 75 253 0.0 0.9 0.00 0.18 0.18 94 1012.2
20260830230344 75 246 0.9 0.9 0.00 0.18 0.18 94 1012.5
20260830225843 75 302 0.0 0.0 0.00 0.18 0.18 92 1012.6
20260830225338 75 302 0.0 0.0 0.00 0.18 0.18 91 1012.6
20260830224832 75 299 0.0 0.9 0.00 0.18 0.18 91 1012.8
20260830224327 76 248 0.9 1.7 0.05 0.18 0.18 90 1012.9
20260830223824 75 253 1.7 1.7 0.05 0.18 0.18 88 1013.1
20260830223320 75 250 1.7 2.6 0.00 0.17 0.17 87 1012.9
20260830222813 75 259 0.0 1.7 0.00 0.17 0.17 88 1013.0
20260830222309 75 255 1.7 1.7 0.00 0.17 0.17 88 1013.0
20260830221804 75 257 0.9 1.7 0.00 0.17 0.17 90 1012.8
20260830221301 75 262 1.7 1.7 0.00 0.17 0.17 90 1012.9
20260830220756 75 260 0.0 0.9 0.00 0.17 0.17 89 1013.0
20260830220255 75 301 3.5 5.2 0.00 0.17 0.17 90 1012.9
20260830215753 75 255 0.0 0.9 0.00 0.17 0.17 93 1012.8
20260830215248 75 265 0.0 0.0 0.00 0.17 0.17 91 1012.3
20260830214743 75 304 0.0 0.0 0.07 0.17 0.17 92 1012.6
20260830214243 75 261 0.0 0.0 0.00 0.16 0.16 91 1012.5
20260830213742 75 261 0.0 0.0 0.00 0.16 0.16 90 1012.6
20260830213238 75 259 0.0 0.0 0.00 0.16 0.16 90 1012.8
20260830212734 75 257 0.9 0.9 0.00 0.16 0.16 90 1012.7
20260830212229 75 256 0.0 0.9 0.00 0.16 0.16 91 1012.9
20260830211729 75 249 1.7 1.7 0.00 0.16 0.16 90 1012.7
20260830211228 75 260 0.9 0.9 0.00 0.16 0.16 91 1012.9
20260830210724 76 253 0.9 0.9 0.00 0.16 0.16 90 1012.9
20260830210223 76 254 0.0 1.7 0.00 0.16 0.16 89 1013.1
20260830205720 76 255 0.0 0.9 0.00 0.16 0.16 89 1013.1
20260830205216 76 252 0.9 1.7 0.00 0.16 0.16 88 1013.2
20260830204710 75 252 0.9 1.7 0.00 0.16 0.16 89 1012.9
20260830204209 75 251 0.9 1.7 0.00 0.16 0.16 89 1012.7
20260830203706 75 256 0.0 0.9 0.00 0.16 0.16 90 1012.9
20260830203201 75 253 0.9 1.7 0.00 0.16 0.16 91 1012.9
20260830202701 75 256 0.9 1.7 0.00 0.16 0.16 90 1013.0
20260830202156 75 250 0.9 1.7 0.00 0.16 0.16 90 1012.7
20260830201655 74 247 0.9 0.9 0.00 0.16 0.16 90 1013.0
20260830201150 74 235 2.6 2.6 0.00 0.16 0.16 89 1012.7
20260830200646 75 241 0.9 1.7 0.00 0.16 0.16 87 1012.9
20260830200145 74 248 2.6 2.6 0.05 0.16 0.16 87 1013.1
20260830195641 74 252 1.7 2.6 0.17 0.16 0.16 88 1013.1
20260830195139 75 259 0.9 2.6 0.12 0.15 0.15 89 1013.4
20260830194637 75 243 0.9 1.7 0.07 0.13 0.13 89 1013.4
20260830194132 77 237 0.9 1.7 0.07 0.12 0.12 86 1013.3
20260830193627 77 244 0.9 1.7 0.07 0.12 0.12 84 1013.3
20260830193127 78 245 0.9 2.6 0.00 0.11 0.11 81 1013.0
20260830192623 77 248 2.6 2.6 0.00 0.11 0.11 79 1013.1
20260830192117 77 248 0.9 0.9 0.00 0.11 0.11 82 1012.9
20260830191613 77 249 0.0 0.9 0.00 0.11 0.11 82 1013.1
20260830191108 78 248 0.0 0.9 0.00 0.11 0.11 82 1012.9
20260830190604 78 259 0.9 1.7 0.00 0.11 0.11 80 1012.7
20260830190058 79 236 0.9 1.7 0.00 0.11 0.11 79 1012.9
20260830185551 79 220 1.7 1.7 0.00 0.11 0.11 76 1012.6
20260830185048 80 220 0.9 4.3 0.00 0.11 0.11 74 1012.5
20260830184546 80 261 1.7 5.2 0.00 0.11 0.11 73 1012.2
20260830184040 80 256 1.7 4.3 0.00 0.11 0.11 74 1012.2
20260830183535 81 350 2.6 7.0 0.00 0.11 0.11 74 1012.1
20260830183032 80 219 1.7 7.0 0.00 0.11 0.11 74 1012.1
20260830182527 80 245 2.6 6.1 0.00 0.11 0.11 75 1011.9
20260830182023 81 221 1.7 2.6 0.00 0.11 0.11 73 1011.7
20260830181519 82 218 1.7 5.2 0.00 0.11 0.11 71 1011.5
20260830181017 83 218 3.5 7.0 0.00 0.11 0.11 70 1011.5
20260830180512 83 259 2.6 5.2 0.00 0.11 0.11 71 1011.3
20260830180011 82 252 2.6 5.2 0.00 0.11 0.11 71 1011.6
20260830175505 82 233 4.3 5.2 0.00 0.11 0.11 71 1011.7
20260830175000 81 323 3.5 5.2 0.00 0.11 0.11 72 1011.8
20260830174455 80 250 4.3 6.1 0.00 0.11 0.11 73 1011.7
20260830173950 80 225 1.7 5.2 0.00 0.11 0.11 74 1011.8
20260830173446 80 229 0.9 2.6 0.00 0.11 0.11 74 1012.3
20260830172941 80 230 2.6 5.2 0.00 0.11 0.11 73 1012.1
20260830172438 80 231 0.9 4.3 0.00 0.11 0.11 72 1011.9
20260830171933 80 224 1.7 6.1 0.00 0.11 0.11 72 1012.2
20260830171429 79 228 1.7 6.1 0.00 0.11 0.11 75 1012.3
20260830170928 79 264 5.2 7.0 0.00 0.11 0.11 73 1012.3
20260830170428 78 230 3.5 6.1 0.00 0.11 0.11 76 1012.4
20260830165926 78 268 3.5 7.0 0.00 0.11 0.11 75 1012.4
20260830165423 78 204 3.5 5.2 0.00 0.11 0.11 76 1012.2
20260830164919 78 209 3.5 8.7 0.00 0.11 0.11 75 1012.3
20260830164415 78 237 4.3 8.7 0.00 0.11 0.11 75 1012.3
20260830163911 78 233 4.3 8.7 0.00 0.11 0.11 77 1012.1
20260830163407 77 211 3.5 5.2 0.00 0.11 0.11 77 1012.1
20260830162906 77 213 1.7 6.1 0.00 0.11 0.11 78 1012.2
20260830162402 77 265 5.2 7.0 0.00 0.11 0.11 77 1012.3
20260830161857 77 211 2.6 4.3 0.00 0.11 0.11 77 1012.3
20260830161356 77 207 3.5 5.2 0.00 0.11 0.11 78 1012.4
20260830160852 76 210 3.5 7.0 0.00 0.11 0.11 78 1012.3
20260830160348 77 241 3.5 7.8 0.00 0.11 0.11 78 1012.5
20260830155843 75 227 0.9 5.2 0.00 0.11 0.11 80 1012.3
20260830155339 76 218 5.2 9.6 0.00 0.11 0.11 78 1012.6
20260830154839 76 216 6.1 11.3 0.00 0.11 0.11 78 1012.5
20260830154335 77 278 6.1 9.6 0.00 0.11 0.11 78 1012.3
20260830153832 77 267 2.6 4.3 0.00 0.11 0.11 79 1012.2
20260830153327 77 235 2.6 5.2 0.00 0.11 0.11 81 1012.5
20260830152825 76 230 1.7 4.3 0.00 0.11 0.11 81 1012.1
20260830152320 76 253 2.6 5.2 0.00 0.11 0.11 81 1012.2
20260830151815 76 232 2.6 5.2 0.00 0.11 0.11 83 1012.3
20260830151314 75 299 4.3 5.2 0.00 0.11 0.11 83 1012.1
20260830150809 75 223 1.7 2.6 0.00 0.11 0.11 84 1011.6
20260830150309 74 253 0.9 1.7 0.00 0.11 0.11 85 1011.7
20260830145803 74 218 0.9 4.3 0.00 0.11 0.11 86 1011.7
20260830145259 73 229 2.6 7.0 0.00 0.11 0.11 86 1011.7
20260830144754 73 241 3.5 11.3 0.00 0.11 0.11 87 1011.8
20260830144249 72 224 0.9 5.2 0.00 0.11 0.11 89 1012.1
20260830143745 71 225 0.0 4.3 0.00 0.11 0.11 91 1012.3
20260830143244 70 214 1.7 6.1 0.00 0.11 0.11 92 1012.3
20260830142738 70 228 0.9 4.3 0.00 0.11 0.11 92 1012.5
20260830142234 70 271 2.6 5.2 0.00 0.11 0.11 93 1012.5
20260830141729 69 191 4.3 6.1 0.00 0.11 0.11 93 1012.5
20260830141224 69 220 2.6 4.3 0.00 0.11 0.11 94 1012.5
20260830140713 69 233 2.6 4.3 0.00 0.11 0.11 95 1012.6
20260830140208 69 250 2.6 4.3 0.00 0.11 0.11 96 1012.5
20260830135703 68 244 1.7 1.7 0.00 0.11 0.11 96 1012.6
20260830135158 68 239 1.7 4.3 0.00 0.11 0.11 97 1012.8
20260830134654 68 234 1.7 2.6 0.00 0.11 0.11 98 1012.8
20260830134149 68 221 0.9 0.9 0.00 0.11 0.11 98 1012.6
20260830133645 68 257 2.6 4.3 0.00 0.11 0.11 98 1012.8
20260830133140 68 217 1.7 5.2 0.00 0.11 0.11 98 1012.7
20260830132636 67 230 1.7 2.6 0.00 0.11 0.11 99 1013.1
20260830132132 67 232 1.7 1.7 0.00 0.11 0.11 99 1013.2
20260830131630 67 229 1.7 1.7 0.00 0.11 0.11 99 1013.4
20260830131125 67 244 0.0 0.9 0.00 0.11 0.11 99 1013.4
20260830130620 67 236 0.0 0.0 0.05 0.11 0.11 99 1013.5
20260830130115 67 242 0.9 1.7 0.07 0.10 0.10 98 1013.5
20260830125614 67 241 0.0 0.9 0.00 0.09 0.09 98 1013.6
20260830125114 67 234 0.0 1.7 0.00 0.09 0.09 98 1013.7
20260830124613 67 235 0.9 1.7 0.05 0.09 0.09 98 1013.8
20260830124108 67 239 0.0 0.0 0.12 0.09 0.09 97 1013.9
20260830123606 67 232 0.0 0.9 0.12 0.08 0.08 97 1013.9
20260830123101 67 241 0.0 0.9 0.05 0.07 0.07 96 1014.0
20260830122557 67 232 0.9 2.6 0.00 0.06 0.06 96 1013.7
20260830122053 67 236 0.9 0.9 0.07 0.06 0.06 96 1013.7
20260830121549 68 228 0.9 0.9 0.07 0.06 0.06 96 1013.6
20260830121048 68 239 0.9 1.7 0.05 0.05 0.05 95 1013.4
20260830120543 68 238 0.9 0.9 0.12 0.05 0.05 95 1013.5
20260830120040 68 237 0.9 2.6 0.12 0.04 0.04 94 1013.5
20260830115536 68 239 0.0 1.7 0.12 0.03 0.03 93 1013.4
20260830115031 68 228 2.6 5.2 0.07 0.02 0.02 92 1013.6
20260830114528 69 225 1.7 2.6 0.00 0.01 0.01 91 1013.2
20260830114027 69 246 0.9 1.7 0.00 0.01 0.01 90 1013.2
20260830113522 69 231 0.9 2.6 0.05 0.01 0.01 89 1013.1
20260830113017 70 243 1.7 2.6 0.05 0.01 0.01 88 1013.0
20260830112514 70 238 0.9 2.6 0.00 0.00 0.00 86 1013.1
20260830112009 70 240 1.7 2.6 0.00 0.00 0.00 85 1012.9
20260830111505 70 237 2.6 2.6 0.00 0.00 0.00 85 1012.8
20260830111000 70 237 0.0 5.2 0.00 0.00 0.00 85 1012.6
20260830110455 70 227 1.7 2.6 0.00 0.00 0.00 85 1012.5
20260830105955 70 229 0.9 2.6 0.00 0.00 0.00 85 1012.3
20260830105451 70 224 2.6 7.0 0.00 0.00 0.00 85 1012.3
20260830104947 70 236 1.7 2.6 0.00 0.00 0.00 85 1012.3
20260830104443 71 297 2.6 5.2 0.00 0.00 0.00 84 1012.1
20260830103938 71 236 0.9 6.1 0.00 0.00 0.00 84 1011.9
20260830103434 71 235 1.7 2.6 0.00 0.00 0.00 83 1011.7
20260830102932 71 232 1.7 2.6 0.00 0.00 0.00 82 1011.6
20260830102427 72 227 0.9 4.3 0.00 0.00 0.00 80 1011.9
20260830101924 72 226 3.5 5.2 0.00 0.00 0.00 79 1012.1
20260830101419 72 222 1.7 2.6 0.00 0.00 0.00 79 1011.8
20260830100918 72 225 1.7 2.6 0.00 0.00 0.00 78 1011.7
20260830100417 72 223 1.7 2.6 0.00 0.00 0.00 78 1011.9
20260830095916 72 261 3.5 6.1 0.00 0.00 0.00 78 1011.8
20260830095412 72 327 1.7 7.8 0.00 0.00 0.00 78 1011.6
20260830094909 72 234 1.7 2.6 0.00 0.00 0.00 78 1011.5
20260830094404 72 234 1.7 4.3 0.00 0.00 0.00 77 1011.6
20260830093900 72 235 0.9 2.6 0.00 0.00 0.00 77 1011.8
20260830093355 72 296 3.5 6.1 0.00 0.00 0.00 77 1011.7
20260830092850 72 318 1.7 2.6 0.00 0.00 0.00 77 1011.6
20260830092346 72 234 0.0 4.3 0.00 0.00 0.00 77 1011.7
20260830091843 72 233 2.6 4.3 0.00 0.00 0.00 76 1011.8
20260830091342 72 235 0.9 1.7 0.00 0.00 0.00 76 1011.8
20260830090841 72 293 0.9 5.2 0.00 0.00 0.00 76 1012.2
20260830090337 72 239 1.7 2.6 0.00 0.00 0.00 76 1011.8
20260830085836 72 263 1.7 2.6 0.00 0.00 0.00 76 1011.8
20260830085332 72 235 0.0 7.0 0.00 0.00 0.00 76 1012.3
20260830084827 72 237 0.9 2.6 0.00 0.00 0.00 76 1012.2
20260830084322 72 319 0.0 6.1 0.00 0.00 0.00 76 1012.2
20260830083817 72 253 0.9 6.1 0.00 0.00 0.00 75 1012.1
20260830083314 72 236 0.9 2.6 0.00 0.00 0.00 75 1012.1
20260830082813 72 234 3.5 5.2 0.00 0.00 0.00 75 1012.2
20260830082308 72 234 1.7 1.7 0.00 0.00 0.00 75 1012.4
20260830081803 72 258 0.9 2.6 0.00 0.00 0.00 75 1012.4
20260830081302 71 238 0.9 1.7 0.00 0.00 0.00 75 1012.3
20260830080757 72 236 1.7 2.6 0.00 0.00 0.00 75 1012.4
20260830080254 72 234 0.9 1.7 0.00 0.00 0.00 75 1012.3
20260830075753 72 234 0.0 4.3 0.00 0.00 0.00 75 1012.5
20260830075248 72 234 0.0 4.3 0.00 0.00 0.00 75 1012.2
20260830074743 72 247 2.6 5.2 0.00 0.00 0.00 74 1012.5
20260830074240 72 234 2.6 4.3 0.00 0.00 0.00 75 1012.3
20260830073736 72 236 0.9 2.6 0.00 0.00 0.00 75 1012.6
20260830073231 72 306 2.6 5.2 0.00 0.00 0.00 75 1012.8
20260830072731 72 233 0.9 2.6 0.00 0.00 0.00 75 1012.6
20260830072226 72 234 1.7 5.2 0.00 0.00 0.00 75 1012.6
20260830071721 72 235 2.6 4.3 0.00 0.00 0.00 76 1012.6
20260830071220 72 235 0.9 2.6 0.00 0.00 0.00 76 1012.6
20260830070714 72 237 0.9 2.6 0.00 0.00 0.00 76 1012.7
20260830070209 72 236 1.7 2.6 0.00 0.00 0.00 76 1012.7
20260830065708 72 237 1.7 2.6 0.00 0.00 0.00 75 1012.7
20260830065202 72 238 0.9 2.6 0.00 0.00 0.00 75 1012.4
20260830064701 72 238 0.9 2.6 0.00 0.00 0.00 75 1012.7
20260830064156 72 236 2.6 5.2 0.00 0.00 0.00 75 1012.7
20260830063655 73 239 0.9 1.7 0.00 0.00 0.00 75 1012.9
20260830063150 73 238 0.9 2.6 0.00 0.00 0.00 74 1012.9
20260830062644 73 238 1.7 2.6 0.00 0.00 0.00 74 1012.8
20260830062139 73 234 3.5 5.2 0.00 0.00 0.00 73 1012.8
20260830061633 73 235 1.7 1.7 0.00 0.00 0.00 73 1013.1
20260830061130 73 235 1.7 2.6 0.00 0.00 0.00 73 1013.0
20260830060626 74 235 1.7 4.3 0.00 0.00 0.00 72 1012.8
20260830060123 74 234 0.9 5.2 0.00 0.00 0.00 72 1013.0
20260830055623 74 320 0.0 1.7 0.00 0.00 0.00 72 1013.2
20260830055119 74 236 0.9 4.3 0.00 0.00 0.00 72 1013.2
20260830054614 74 234 0.9 4.3 0.00 0.00 0.00 72 1013.2
20260830054109 74 233 1.7 4.3 0.00 0.00 0.00 72 1013.2
20260830053604 74 240 0.0 6.1 0.00 0.00 0.00 72 1013.2
20260830053059 74 245 2.6 5.2 0.00 0.00 0.00 72 1013.4
20260830052554 74 245 2.6 4.3 0.00 0.00 0.00 72 1013.3
20260830052054 74 234 2.6 2.6 0.00 0.00 0.00 72 1013.1
20260830051549 74 237 0.9 1.7 0.00 0.00 0.00 72 1013.0
20260830051045 74 257 1.7 6.1 0.00 0.00 0.00 72 1012.9
20260830050538 74 238 0.9 2.6 0.00 0.00 0.00 72 1013.0
20260830050033 74 237 1.7 4.3 0.00 0.00 0.00 72 1012.8
20260830045531 74 235 3.5 5.2 0.00 0.00 0.00 73 1013.0
20260830045027 74 233 0.9 4.3 0.00 0.00 0.00 73 1013.0
20260830044527 74 236 1.7 2.6 0.00 0.00 0.00 73 1012.8
20260830044022 74 237 2.6 4.3 0.00 0.00 0.00 74 1013.0
20260830043517 74 237 0.9 2.6 0.00 0.00 0.00 74 1013.2
20260830043016 74 236 1.7 2.6 0.00 0.00 0.00 74 1013.3
20260830042514 74 238 2.6 2.6 0.00 0.00 0.00 74 1013.3
20260830042009 74 239 0.9 2.6 0.00 0.00 0.00 74 1013.1
20260830041508 74 239 1.7 2.6 0.00 0.00 0.00 75 1013.3
20260830041003 74 238 0.9 2.6 0.00 0.00 0.00 76 1013.4
20260830040458 74 238 0.9 4.3 0.00 0.00 0.00 76 1013.1
20260830035957 73 270 0.9 1.7 0.00 0.00 0.00 78 1013.4
20260830035456 73 317 0.0 1.7 0.00 0.00 0.00 79 1013.3
20260830034952 73 305 1.7 4.3 0.00 0.00 0.00 78 1013.4
20260830034442 73 250 1.7 1.7 0.00 0.00 0.00 80 1013.5
20260830033941 73 317 0.9 1.7 0.00 0.00 0.00 80 1013.5
20260830033431 73 243 0.0 1.7 0.00 0.00 0.00 80 1013.4